Regional Weather Roundup
Issued by NWS

Home | Current Version | Previous Version | Text Only | Print | Product List | Glossary Off
Versions: 1 2 3 4 5 6 7 8 9 10 11 12 13 14 15 16 17 18 19 20 21 22 23 24 25 26 27 28 29 30 31 32 33 34 35 36 37 38 39 40 41 42 43 44 45 46 47 48 49 50

000
ASUS45 KABQ 152310
RWRNM
WEATHER ROUNDUP FOR NEW MEXICO
NATIONAL WEATHER SERVICE ALBUQUERQUE NM
500 PM MDT MON SEP 15 2014

NOTE: "FAIR" MEANS FEW OR NO CLOUDS BELOW 12,000 FEET AGL WITH NO
       SIGNIFICANT WEATHER OR OBSTRUCTIONS TO VISION.

      THIS PRODUCT IS RELEASED AS TWO VERSIONS.  ONE VERSION NEAR
      THE TOP OF THE HOUR CONTAINING PRELIMINARY DATA FROM ALBUQUERQUE
      AND OTHER STATIONS.  A FINAL VERSION WITH ADDITIONAL DATA IS
      ISSUED ABOUT 10 MINUTES AFTER THE HOUR.

NMZ501-503-504-510>518-160000-
NORTHWEST PLATEAU/NORTHCENTRAL MOUNTAINS

CITY           SKY/WX    TMP DP  RH WIND       PRES   REMARKS
FARMINGTON     SUNNY     87  37  17 SW6       30.13F
LOS ALAMOS     CLOUDY    71  43  36 S6G20     30.35R
SANTA FE       CLOUDY    72  44  36 NE18G26   30.27S
ANGEL FIRE     CLOUDY    65  42  43 SE16      30.44R

$$
NMZ402-403-502-505>509-160000-
WESTCENTRAL MOUNTAINS/SOUTHWEST MOUNTAINS

CITY           SKY/WX    TMP DP  RH WIND       PRES   REMARKS
GALLUP         MOSUNNY   82  38  20 CALM      30.20F
GRANTS         PTSUNNY   82  37  20 N8        30.25S
SILVER CITY    CLOUDY    75  55  50 S17       30.19R

$$
NMZ407-409-411-412-160000-
SOUTHERN DESERTS

CITY           SKY/WX    TMP DP  RH WIND       PRES   REMARKS
LORDSBURG      FAIR      81  55  41 E15G21    30.08S
DEMING         PTSUNNY   80  57  45 SE12      30.10F
LAS CRUCES     PTSUNNY   79  58  47 SE12      30.15S
HOLLOMAN AFB   PTSUNNY   81  58  45 S14       30.11S
ALAMOGORDO     PTSUNNY   81  57  44 S16G22    30.13S
T OR C         PTSUNNY   83  53  35 SE13      30.11F

$$
NMZ519>523-160000-
CENTRAL VALLEYS/CENTRAL HIGHLANDS

CITY           SKY/WX    TMP DP  RH WIND       PRES   REMARKS
ALBUQUERQUE    MOSUNNY   85  52  32 S7G18     30.14F
DOUBLE EAGLE   MOSUNNY   84  50  30 SE8       30.20S
MORIARTY ARPT  TSTM      67  59  75 E10       30.26S
CLINES CORNERS PTSUNNY   69  53  56 E14G23    30.31S
BELEN          FAIR      86  51  30 S3G16     30.14S
SOCORRO        FAIR      87  51  29 SE8       30.12S

$$
NMZ524>526-539-540-160000-
SOUTHCENTRAL MOUNTAINS

CITY           SKY/WX    TMP DP  RH WIND       PRES   REMARKS
RUIDOSO        LGT RAIN  64  57  77 SE7       30.34R

$$
NMZ527>531-160000-
NORTHEAST HIGHLANDS/NORTHEAST PLAINS

CITY           SKY/WX    TMP DP  RH WIND       PRES   REMARKS
LAS VEGAS      PTSUNNY   71  52  50 SE14G21   30.34S
RATON          MOSUNNY   73  50  44 N9        30.30S
CLAYTON        CLOUDY    59  54  83 NE15      30.29S

$$
NMZ532>537-160000-
EASTCENTRAL PLAINS

CITY           SKY/WX    TMP DP  RH WIND       PRES   REMARKS
TUCUMCARI      PTSUNNY   75  57  53 NE18G24   30.21R
CANNON AFB     SUNNY     80  59  48 SE7       30.20R
CLOVIS AIRPORT   N/A     77  57  50 SE7       30.22S

$$
NMZ028-029-538-160000-
SOUTHEAST PLAINS

CITY           SKY/WX    TMP DP  RH WIND       PRES   REMARKS
ROSWELL        MOSUNNY   75  62  64 SE9       30.16S
CARLSBAD       CLOUDY    76  66  71 SE6       30.13S
HOBBS          CLOUDY    72  64  78 E6        30.18S


$$


USA.gov is the U.S. government's official web portal to all federal, state and local government web resources and services.